PBO Station Position Time Series. Reference Frame : NAM14
Format Version,1.1.1
4-character ID,P563
Station name,ButtonwillCS2005
Begin Date, 2005-12-17
End Date, 2023-06-26
Release Date, 2023-06-27
Reference position, 35.4186694167 North Latitude, -119.4211663491 East Longitude, 56.60679 meters elevation,
Date, North (mm), East (mm), Vertical (mm), North Std. Deviation (mm), East Std. Deviation (mm),              Vertical Std. Deviation (mm), Quality,
2005-12-17,0.00, 0.00, 0.00, 2.12, 1.77, 7.80, repro,
2005-12-18,0.59, 0.18, -8.12, 2.00, 1.70, 7.43, repro,
2005-12-19,0.15, -0.20, -6.86, 2.12, 1.80, 7.73, repro,
2005-12-20,0.77, 1.08, -5.51, 2.06, 1.81, 7.67, repro,
2005-12-21,1.15, -0.49, -1.31, 2.03, 1.75, 7.52, repro,
2005-12-22,0.47, 0.38, 3.57, 2.05, 1.79, 7.64, repro,
2005-12-23,2.28, 0.42, -2.44, 2.10, 1.77, 7.75, repro,
2005-12-24,-0.07, -0.06, -1.68, 2.23, 1.88, 8.18, repro,
2005-12-25,-1.25, -0.55, -3.73, 2.15, 1.80, 7.91, repro,
2005-12-26,0.68, 0.14, -0.47, 2.08, 1.71, 7.63, repro,
2005-12-27,-0.54, -0.52, 1.06, 2.11, 1.75, 7.81, repro,
2005-12-28,1.00, 1.05, 0.08, 2.07, 1.74, 7.61, repro,
2005-12-29,0.45, 1.05, 1.78, 2.28, 1.90, 8.59, repro,
2005-12-30,-0.66, -0.13, 4.45, 2.29, 1.89, 8.49, repro,
2005-12-31,0.47, -0.84, 4.57, 2.15, 1.80, 8.04, repro,
2006-01-01,1.44, 0.00, 2.57, 2.19, 1.85, 8.25, repro,
2006-01-02,3.12, -0.97, 6.99, 2.09, 1.74, 7.68, repro,
2006-01-03,1.17, 0.01, -9.72, 2.32, 2.06, 8.60, repro,
2006-01-04,1.08, -1.23, -8.71, 2.22, 1.89, 8.07, repro,
2006-01-05,1.01, -0.60, -10.16, 2.18, 1.83, 8.04, repro,
2006-01-06,-0.10, -0.55, -5.15, 2.20, 1.85, 8.13, repro,
2006-01-07,1.23, -1.50, -2.10, 2.11, 1.75, 7.86, repro,
2006-01-08,0.70, -0.84, 0.57, 2.09, 1.79, 7.68, repro,
2006-01-09,0.91, -0.59, -2.07, 2.18, 1.81, 8.01, repro,
2006-01-10,1.62, -0.78, -6.00, 2.17, 1.82, 8.00, repro,
2006-01-11,2.65, 0.08, -1.57, 2.17, 1.82, 8.08, repro,
2006-01-12,2.28, -0.74, -1.08, 2.11, 1.77, 7.66, repro,
2006-01-13,0.53, 0.13, 0.99, 2.24, 1.93, 8.39, repro,
2006-01-14,1.61, -1.40, -2.24, 2.07, 1.68, 7.61, repro,
2006-01-15,1.41, -0.94, -3.94, 2.04, 1.66, 7.46, repro,
2006-01-16,1.05, -1.65, 1.90, 2.16, 1.86, 7.91, repro,
2006-01-17,0.55, -0.84, -2.81, 2.12, 1.76, 7.71, repro,
2006-01-18,2.84, -1.59, -1.50, 2.02, 1.65, 7.41, repro,
2006-01-19,1.00, -2.22, -0.23, 2.07, 1.66, 7.63, repro,
2006-01-20,1.06, -0.43, -6.62, 2.09, 1.69, 7.76, repro,
2006-01-21,0.73, 0.12, 1.38, 2.06, 1.66, 7.47, repro,
2006-01-22,-0.05, -0.71, -6.03, 2.01, 1.61, 7.30, repro,
2006-01-23,1.14, -0.21, -3.58, 2.02, 1.60, 7.32, repro,
2006-01-24,0.82, -0.10, -1.80, 2.05, 1.64, 7.49, repro,
2006-01-25,-0.72, -0.53, -1.01, 1.95, 1.59, 7.21, repro,
2006-01-26,1.41, -1.57, -2.88, 1.96, 1.58, 7.24, repro,
2006-01-27,0.86, -0.73, -0.75, 1.96, 1.58, 7.18, repro,
2006-01-28,1.69, -0.71, -6.34, 1.95, 1.58, 7.18, repro,
2006-01-29,0.39, -1.25, -7.58, 1.96, 1.58, 7.22, repro,
2006-01-30,-0.35, -0.37, -4.24, 1.97, 1.58, 7.22, repro,
2006-01-31,0.20, -0.78, 1.04, 1.96, 1.58, 7.27, repro,
2006-02-01,1.02, -1.18, -1.56, 1.99, 1.59, 7.33, repro,
2006-02-02,1.27, -0.95, -0.02, 1.98, 1.57, 7.30, repro,
2006-02-03,0.45, -1.50, -0.57, 1.99, 1.59, 7.33, repro,
2006-02-04,0.30, -1.17, 0.78, 1.98, 1.58, 7.34, repro,
2006-02-05,1.20, -0.80, -2.41, 1.97, 1.57, 7.27, repro,
2006-02-06,0.82, -0.45, -2.68, 1.98, 1.57, 7.31, repro,
2006-02-07,0.91, -0.26, -6.36, 1.97, 1.57, 7.33, repro,
2006-02-08,2.39, -0.52, -13.24, 1.96, 1.57, 7.31, repro,
2006-02-09,1.77, -0.66, -5.44, 2.04, 1.58, 7.52, repro,
2006-02-10,0.55, -0.46, -4.70, 2.14, 1.65, 7.90, repro,
2006-02-11,1.30, 0.49, -7.83, 1.99, 1.58, 7.38, repro,
2006-02-12,2.43, -0.44, -11.34, 1.99, 1.57, 7.37, repro,
2006-02-13,2.60, 0.41, -6.17, 1.98, 1.57, 7.34, repro,
2006-02-14,0.77, -0.05, 2.38, 2.00, 1.56, 7.41, repro,
2006-02-15,1.77, -0.20, -2.66, 1.97, 1.57, 7.35, repro,
2006-02-16,1.53, 0.62, 2.36, 1.98, 1.58, 7.36, repro,
2006-02-17,1.02, 0.61, -4.22, 2.05, 1.59, 7.53, repro,
2006-02-18,1.68, 0.44, 3.27, 1.98, 1.57, 7.33, repro,
2006-02-19,1.94, 0.02, -3.72, 1.99, 1.57, 7.35, repro,
2006-02-20,1.49, 0.43, -0.94, 1.99, 1.58, 7.39, repro,
2006-02-21,1.64, 0.75, 3.23, 1.99, 1.58, 7.39, repro,
2006-02-22,2.50, 1.84, 6.27, 1.99, 1.59, 7.36, repro,
2006-02-23,1.96, 1.43, 4.40, 1.97, 1.59, 7.33, repro,
2006-02-24,2.02, 1.40, -0.77, 1.97, 1.58, 7.30, repro,
2006-02-25,1.27, 0.75, -2.82, 2.00, 1.59, 7.39, repro,
2006-02-26,0.34, -1.15, -1.36, 1.99, 1.60, 7.44, repro,
2006-02-27,3.83, 1.85, 3.08, 1.99, 1.62, 7.44, repro,
2006-02-28,-0.14, -2.53, 11.87, 2.04, 1.64, 7.55, repro,
2006-03-01,2.37, 1.77, 2.78, 2.07, 1.66, 7.53, repro,
2006-03-02,1.86, 0.67, 1.26, 1.98, 1.59, 7.29, repro,
2006-03-03,1.43, 0.00, 6.09, 2.10, 1.66, 7.77, repro,
2006-03-04,2.22, 0.33, -1.14, 1.96, 1.60, 7.37, repro,
2006-03-05,1.28, 0.47, 2.93, 1.97, 1.61, 7.38, repro,
2006-03-06,2.72, 0.58, -2.54, 1.98, 1.62, 7.44, repro,
2006-03-07,2.46, 1.01, 5.34, 1.98, 1.59, 7.35, repro,
2006-03-08,2.79, 0.21, 1.06, 1.95, 1.59, 7.29, repro,
2006-03-09,2.34, -0.62, 2.55, 1.96, 1.59, 7.31, repro,
2006-03-10,0.82, -0.76, 15.52, 1.96, 1.60, 7.32, repro,
2006-03-11,0.64, -0.34, 10.52, 1.98, 1.61, 7.38, repro,
2006-03-12,1.73, -0.40, 6.28, 2.00, 1.62, 7.43, repro,
2006-03-13,2.46, -0.67, 0.29, 2.01, 1.62, 7.45, repro,
2006-03-14,1.69, -0.01, 0.38, 2.00, 1.62, 7.42, repro,
2006-03-15,0.62, 0.27, 3.21, 1.98, 1.62, 7.37, repro,
2006-03-16,1.29, -0.12, -0.37, 2.04, 1.65, 7.51, repro,
2006-03-17,0.92, -0.58, 6.03, 2.11, 1.73, 7.81, repro,
2006-03-18,3.29, 1.58, 5.79, 2.01, 1.64, 7.44, repro,
2006-03-19,1.14, -2.20, -1.49, 2.01, 1.64, 7.49, repro,
2006-03-20,1.92, -1.33, 1.95, 1.99, 1.63, 7.41, repro,
2006-03-21,1.90, -0.38, 1.90, 1.96, 1.63, 7.36, repro,
2006-03-22,2.40, -0.02, -0.22, 1.98, 1.64, 7.42, repro,
2006-03-23,1.05, 1.03, -0.77, 2.04, 1.66, 7.56, repro,
2006-03-24,2.06, -1.60, 2.34, 2.06, 1.67, 7.70, repro,
2006-03-25,1.26, -0.58, -2.83, 2.07, 1.68, 7.75, repro,
2006-03-26,2.12, -0.93, 3.94, 2.09, 1.71, 7.76, repro,
2006-03-27,1.15, -1.88, 7.12, 2.03, 1.67, 7.60, repro,
2006-03-28,1.71, -0.87, 12.14, 1.98, 1.64, 7.49, repro,
2006-03-29,0.99, -1.80, 6.96, 2.00, 1.64, 7.62, repro,
2006-03-30,1.54, -2.42, 1.48, 1.93, 1.62, 7.36, repro,
2006-03-31,1.87, -1.43, 4.48, 1.92, 1.61, 7.30, repro,
2006-04-01,1.64, -0.24, 5.30, 1.94, 1.63, 7.38, repro,
2006-04-02,1.83, -0.87, 8.10, 1.93, 1.61, 7.31, repro,
2006-04-03,1.39, -1.23, 4.52, 1.95, 1.61, 7.40, repro,
2006-04-04,0.95, -3.67, 5.66, 1.99, 1.64, 7.56, repro,
2006-04-05,2.86, -0.92, 9.78, 1.96, 1.66, 7.54, repro,
2006-04-06,1.64, -1.45, 8.31, 1.96, 1.64, 7.47, repro,
2006-04-07,1.63, -2.55, 11.02, 2.02, 1.67, 7.64, repro,
2006-04-08,1.68, -1.02, 1.63, 2.00, 1.65, 7.54, repro,
2006-04-09,2.06, -1.41, 7.40, 1.94, 1.62, 7.38, repro,
2006-04-10,3.36, -1.33, 5.62, 1.94, 1.61, 7.35, repro,
2006-04-11,2.32, -2.77, 8.91, 2.00, 1.63, 7.61, repro,
2006-04-12,2.81, -2.33, 5.94, 2.00, 1.64, 7.66, repro,
2006-04-13,1.54, -1.89, 7.18, 1.94, 1.61, 7.39, repro,
2006-04-14,1.73, -0.88, 4.18, 1.93, 1.61, 7.37, repro,
2006-04-15,2.93, -1.29, 6.73, 1.99, 1.63, 7.47, repro,
2006-04-16,1.85, -0.65, 9.53, 1.94, 1.61, 7.33, repro,
2006-04-17,2.37, -3.11, 12.26, 1.92, 1.62, 7.36, repro,
2006-04-18,2.26, -2.53, 7.06, 1.97, 1.66, 7.60, repro,
2006-04-19,2.37, -1.75, 6.08, 1.92, 1.61, 7.36, repro,
2006-04-20,2.26, -1.17, 11.58, 1.96, 1.65, 7.56, repro,
2006-04-21,1.22, -1.26, 7.52, 1.94, 1.61, 7.40, repro,
2006-04-22,2.45, -1.02, 11.33, 1.92, 1.61, 7.27, repro,
2006-04-23,1.64, -2.55, 4.54, 1.95, 1.65, 7.48, repro,
2006-04-24,2.68, -1.63, 2.09, 1.95, 1.65, 7.48, repro,
2006-04-25,1.43, -1.09, 3.11, 1.99, 1.73, 7.71, repro,
2006-04-26,2.74, -1.05, 11.18, 2.00, 1.68, 7.65, repro,
2006-04-27,1.98, -1.12, -1.74, 2.02, 1.66, 7.55, repro,
2006-04-28,1.64, -0.78, 3.41, 2.00, 1.62, 7.44, repro,
2006-04-29,2.57, -2.12, 3.27, 1.94, 1.61, 7.40, repro,
2006-04-30,1.76, -1.40, 3.98, 1.93, 1.60, 7.35, repro,
2006-05-01,1.45, -0.95, 3.89, 1.94, 1.61, 7.36, repro,
2006-05-02,2.00, -2.13, 6.45, 1.95, 1.60, 7.39, repro,
2006-05-03,3.01, -1.70, 9.09, 1.94, 1.60, 7.35, repro,
2006-05-04,2.05, -2.41, 5.64, 1.93, 1.60, 7.30, repro,
2006-05-05,1.95, -1.96, 4.70, 1.94, 1.60, 7.36, repro,
2006-05-06,2.25, -1.84, 10.37, 1.95, 1.61, 7.46, repro,
2006-05-07,2.60, -1.82, 5.58, 1.96, 1.61, 7.45, repro,
2006-05-08,2.11, -0.32, 6.84, 1.95, 1.61, 7.42, repro,
2006-05-09,2.16, -0.39, 9.30, 1.99, 1.63, 7.47, repro,
2006-05-10,2.18, -1.02, 7.35, 1.93, 1.61, 7.37, repro,
2006-05-11,1.56, -1.58, 7.40, 1.93, 1.60, 7.37, repro,
2006-05-12,2.40, -0.70, 4.15, 1.93, 1.60, 7.36, repro,
2006-05-13,1.29, -0.51, 7.58, 1.94, 1.61, 7.41, repro,
2006-05-14,1.89, -0.64, 5.64, 1.99, 1.63, 7.50, repro,
2006-05-15,1.23, -1.60, 5.56, 1.94, 1.61, 7.43, repro,
2006-05-16,2.24, -1.54, 3.93, 1.96, 1.64, 7.45, repro,
2006-05-17,2.74, -1.57, 6.73, 1.98, 1.65, 7.54, repro,
2006-05-18,2.15, -0.95, 16.24, 1.96, 1.62, 7.45, repro,
2006-05-19,-0.24, -1.71, 15.45, 2.12, 1.72, 7.98, repro,
2006-05-20,2.99, -0.74, 7.39, 2.02, 1.65, 7.63, repro,
2006-05-21,3.43, -1.48, 8.26, 2.02, 1.62, 7.55, repro,
2006-05-22,2.45, -2.43, 12.07, 2.01, 1.62, 7.50, repro,
2006-05-23,1.77, -1.37, 9.65, 2.03, 1.62, 7.55, repro,
2006-05-24,1.39, -1.40, 8.93, 2.03, 1.63, 7.58, repro,
2006-05-25,1.10, -1.84, 7.69, 2.17, 1.73, 8.11, repro,
2006-05-26,1.74, -0.99, 17.19, 2.06, 1.65, 7.74, repro,
2006-05-27,2.22, -0.37, 12.27, 2.00, 1.62, 7.45, repro,
2006-05-28,1.60, -1.07, 10.11, 2.03, 1.63, 7.57, repro,
2006-05-29,1.88, -0.72, 12.01, 2.05, 1.66, 7.70, repro,
2006-05-30,2.46, -1.42, 13.05, 2.07, 1.67, 7.69, repro,
2006-05-31,0.67, -1.10, 10.84, 2.09, 1.70, 7.83, repro,
2006-06-01,1.54, -1.25, 10.34, 2.01, 1.65, 7.59, repro,
2006-06-02,0.77, 0.18, 13.39, 2.15, 1.71, 7.92, repro,
2006-06-03,1.02, 0.25, 7.54, 2.10, 1.68, 7.81, repro,
2006-06-04,0.28, 0.16, 13.72, 2.07, 1.66, 7.74, repro,
2006-06-05,1.69, -1.36, 18.37, 2.07, 1.66, 7.77, repro,
2006-06-06,1.04, -0.08, 22.83, 2.04, 1.65, 7.64, repro,
2006-06-07,3.29, -0.40, 6.09, 2.06, 1.65, 7.62, repro,
2006-06-08,2.14, -1.38, 2.74, 2.02, 1.64, 7.57, repro,
2006-06-09,1.41, -0.76, 16.54, 2.05, 1.65, 7.64, repro,
2006-06-10,1.28, -0.58, 17.97, 2.02, 1.63, 7.56, repro,
2006-06-11,0.67, -1.50, 13.87, 2.03, 1.66, 7.64, repro,
2006-06-12,2.03, 0.45, 11.32, 2.08, 1.72, 7.77, repro,
2006-06-13,2.83, -0.94, 11.94, 2.04, 1.65, 7.61, repro,
2006-06-14,2.88, 0.81, 14.08, 2.01, 1.62, 7.50, repro,
2006-06-15,2.51, -0.77, 15.27, 2.05, 1.65, 7.67, repro,
2006-06-16,2.85, -0.24, 18.31, 2.01, 1.64, 7.56, repro,
2006-06-17,2.69, 0.90, 10.25, 2.02, 1.62, 7.53, repro,
2006-06-18,2.12, 0.03, 19.35, 2.04, 1.67, 7.75, repro,
2006-06-19,1.56, -0.35, 13.48, 2.04, 1.67, 7.74, repro,
2006-06-20,4.00, 0.35, 10.76, 2.03, 1.67, 7.71, repro,
2006-06-21,2.25, -1.20, 7.36, 2.03, 1.67, 7.71, repro,
2006-06-22,1.42, -0.31, 14.71, 2.04, 1.68, 7.79, repro,
2006-06-23,2.78, -0.44, 9.44, 2.03, 1.66, 7.75, repro,
2006-06-24,3.06, 0.19, 14.54, 2.04, 1.68, 7.79, repro,
2006-06-25,2.43, -0.02, 7.81, 2.04, 1.68, 7.76, repro,
2006-06-26,2.07, -0.77, 12.27, 2.13, 1.81, 8.21, repro,
2006-06-27,4.22, -1.74, 13.47, 2.13, 1.76, 8.05, repro,
2006-06-28,3.11, -1.18, 13.38, 2.06, 1.69, 7.88, repro,
2006-06-29,2.40, -0.78, 13.66, 2.00, 1.69, 7.66, repro,
2006-06-30,2.48, -0.47, 12.83, 2.03, 1.65, 7.75, repro,
2006-07-01,2.05, -0.76, 15.92, 2.00, 1.64, 7.68, repro,
2006-07-02,2.52, -1.22, 10.70, 2.04, 1.69, 7.84, repro,
2006-07-03,2.87, -0.94, 6.04, 1.99, 1.64, 7.65, repro,
2006-07-04,2.07, -0.06, 13.05, 2.00, 1.63, 7.64, repro,
2006-07-05,0.55, -0.13, 13.52, 2.00, 1.64, 7.69, repro,
2006-07-06,2.10, 0.16, 3.27, 2.01, 1.63, 7.70, repro,
2006-07-07,2.16, -0.06, 5.97, 2.00, 1.63, 7.67, repro,
2006-07-08,1.92, -0.87, 14.22, 2.00, 1.63, 7.65, repro,
2006-07-09,1.88, -0.49, 7.35, 2.03, 1.64, 7.75, repro,
2006-07-10,0.86, 0.14, 12.09, 2.04, 1.63, 7.71, repro,
2006-07-11,1.31, -0.45, 16.53, 2.03, 1.64, 7.75, repro,
2006-07-12,1.93, -1.00, 7.26, 2.04, 1.69, 7.85, repro,
2006-07-13,2.71, -0.83, 5.96, 2.02, 1.64, 7.69, repro,
2006-07-14,1.85, 0.04, 7.89, 2.00, 1.64, 7.70, repro,
2006-07-15,2.73, -0.44, 12.21, 2.01, 1.63, 7.71, repro,
2006-07-16,2.47, 0.16, 10.96, 2.01, 1.65, 7.77, repro,
2006-07-17,3.29, 0.67, 16.54, 2.04, 1.70, 8.01, repro,
2006-07-18,2.18, 0.20, 17.14, 2.00, 1.69, 7.67, repro,
2006-07-19,0.74, -0.37, 9.10, 1.95, 1.62, 7.44, repro,
2006-07-20,2.36, 0.93, 10.63, 1.98, 1.66, 7.53, repro,
2006-07-21,2.74, -0.98, 9.10, 1.95, 1.61, 7.41, repro,
2006-07-22,2.02, -0.82, 10.96, 1.97, 1.64, 7.54, repro,
2006-07-23,2.94, 1.71, 12.19, 1.95, 1.65, 7.53, repro,
2006-07-24,3.60, -0.91, 9.21, 1.93, 1.61, 7.37, repro,
2006-07-25,2.60, 0.21, 17.74, 1.98, 1.68, 7.59, repro,
2006-07-26,1.86, 0.66, 9.73, 1.98, 1.67, 7.56, repro,
2006-07-27,3.07, -0.24, 13.24, 1.95, 1.61, 7.37, repro,
2006-07-28,2.66, 0.15, 12.08, 1.95, 1.61, 7.38, repro,
2006-07-29,1.03, 0.37, 7.60, 1.94, 1.62, 7.44, repro,
2006-07-30,1.42, -2.38, 15.05, 2.01, 1.68, 7.67, repro,
2006-07-31,2.39, -1.28, 10.97, 1.94, 1.62, 7.46, repro,
2006-08-01,2.71, -0.53, 15.74, 1.95, 1.60, 7.37, repro,
2006-08-02,2.08, -0.55, 11.01, 1.95, 1.65, 7.58, repro,
2006-08-03,1.97, -0.34, 10.88, 2.01, 1.72, 7.87, repro,
2006-08-04,1.93, -0.00, 8.11, 2.06, 1.69, 7.92, repro,
2006-08-05,2.34, -0.75, 9.65, 2.04, 1.73, 7.96, repro,
2006-08-06,2.32, -0.06, 7.70, 1.98, 1.65, 7.63, repro,
2006-08-07,2.68, -0.64, 10.59, 1.97, 1.65, 7.66, repro,
2006-08-08,2.23, -0.33, 6.21, 1.94, 1.61, 7.38, repro,
2006-08-09,2.09, 0.56, 7.89, 1.99, 1.68, 7.60, repro,
2006-08-10,2.82, 0.67, 10.92, 1.97, 1.63, 7.50, repro,
2006-08-11,1.62, -0.07, 10.85, 1.95, 1.62, 7.43, repro,
2006-08-12,2.38, -0.06, 12.53, 1.95, 1.61, 7.39, repro,
2006-08-13,0.81, -0.85, 10.63, 1.95, 1.63, 7.45, repro,
2006-08-14,1.97, -0.64, 15.03, 1.98, 1.68, 7.56, repro,
2006-08-15,1.72, -0.47, 20.47, 2.06, 1.70, 7.79, repro,
2006-08-16,0.99, -0.13, 12.95, 1.96, 1.63, 7.49, repro,
2006-08-17,2.52, 0.89, 11.75, 1.98, 1.66, 7.48, repro,
2006-08-18,2.53, -0.50, 9.23, 2.00, 1.72, 7.69, repro,
2006-08-19,3.41, -0.41, 4.37, 1.92, 1.60, 7.32, repro,
2006-08-20,3.52, -0.45, 12.33, 1.94, 1.62, 7.39, repro,
2006-08-21,2.31, 0.28, 6.90, 1.96, 1.65, 7.50, repro,
2006-08-22,1.78, 0.73, 10.88, 1.96, 1.64, 7.43, repro,
2006-08-23,3.00, -0.64, 20.00, 1.96, 1.65, 7.49, repro,
2006-08-24,2.12, 0.47, 15.33, 1.94, 1.65, 7.47, repro,
2006-08-25,2.42, -0.61, 18.35, 2.00, 1.69, 7.74, repro,
2006-08-26,1.58, -1.52, 16.70, 2.02, 1.72, 7.88, repro,
2006-08-27,2.53, -0.27, 11.84, 2.02, 1.73, 7.87, repro,
2006-08-28,1.18, -0.09, 14.18, 2.01, 1.73, 7.84, repro,
2006-08-29,1.94, -0.27, 10.64, 2.00, 1.73, 7.87, repro,
2006-08-30,3.39, -0.76, 14.45, 2.09, 1.76, 8.09, repro,
2006-08-31,2.81, -0.13, 11.73, 2.02, 1.73, 7.83, repro,
2006-09-01,2.65, 0.19, 11.84, 2.06, 1.77, 8.04, repro,
2006-09-02,1.57, 0.42, 6.35, 2.01, 1.73, 7.87, repro,
2006-09-03,2.19, 0.15, 9.90, 2.01, 1.75, 7.90, repro,
2006-09-04,2.30, 0.30, 3.82, 2.06, 1.76, 8.00, repro,
2006-09-05,2.88, -0.00, 4.15, 2.09, 1.77, 8.05, repro,
2006-09-06,2.07, 0.12, 5.41, 2.01, 1.74, 7.86, repro,
2006-09-07,1.02, -0.60, 12.68, 2.06, 1.78, 8.08, repro,
2006-09-08,0.88, 0.94, 15.29, 2.05, 1.78, 8.03, repro,
2006-09-09,1.32, -2.09, 5.87, 1.97, 1.69, 7.59, repro,
2006-09-10,3.21, 0.29, 12.92, 1.99, 1.69, 7.64, repro,
2006-09-11,2.62, -0.80, 12.56, 1.98, 1.69, 7.61, repro,
2006-09-12,2.55, -0.53, 10.71, 2.00, 1.70, 7.71, repro,
2006-09-13,2.35, -0.04, 16.48, 1.96, 1.69, 7.55, repro,
2006-09-14,2.17, -1.44, 13.71, 2.07, 1.77, 7.86, repro,
2006-09-15,2.84, -1.58, 13.80, 2.03, 1.67, 7.67, repro,
2006-09-16,2.32, -1.29, 15.49, 1.96, 1.65, 7.51, repro,
2006-09-17,2.20, -0.27, 14.97, 1.95, 1.64, 7.46, repro,
2006-09-18,2.41, -0.80, 15.55, 1.96, 1.65, 7.49, repro,
2006-09-19,1.55, -1.25, 15.51, 1.95, 1.64, 7.45, repro,
2006-09-20,1.55, -0.66, 13.76, 1.96, 1.65, 7.52, repro,
2006-09-21,1.44, -1.57, 15.13, 1.98, 1.69, 7.61, repro,
2006-09-22,2.48, -1.53, 18.53, 2.08, 1.75, 7.92, repro,
2006-09-23,2.15, -0.88, 13.07, 2.07, 1.71, 7.83, repro,
2006-09-24,3.03, -1.03, 7.95, 2.09, 1.75, 7.98, repro,
2006-09-25,2.23, -0.58, 12.66, 2.11, 1.74, 8.01, repro,
2006-09-26,1.67, -1.57, 9.71, 2.06, 1.74, 7.71, repro,
2006-09-27,2.05, -0.45, 8.38, 2.04, 1.72, 7.78, repro,
2006-09-28,2.09, -0.79, 12.08, 2.05, 1.72, 7.81, repro,
2006-09-29,1.39, -1.18, 18.09, 2.05, 1.71, 7.76, repro,
2006-09-30,3.42, -0.34, 20.16, 1.99, 1.68, 7.63, repro,
2006-10-01,1.83, -0.91, 18.18, 1.99, 1.67, 7.63, repro,
2006-10-02,2.02, -1.29, 14.01, 2.02, 1.73, 7.66, repro,
2006-10-03,1.52, -1.01, 10.94, 2.11, 1.81, 8.03, repro,
2006-10-04,2.12, -0.14, 18.61, 2.04, 1.71, 7.79, repro,
2006-10-05,1.94, -0.35, 20.90, 2.04, 1.69, 7.84, repro,
2006-10-06,1.02, -1.52, 13.97, 2.02, 1.69, 7.83, repro,
2006-10-07,1.87, -1.19, 7.03, 2.06, 1.75, 8.06, repro,
2006-10-08,1.94, -1.88, 10.53, 2.07, 1.75, 8.10, repro,
2006-10-09,1.83, -2.41, 3.55, 2.05, 1.75, 8.06, repro,
2006-10-10,1.50, -2.71, 16.01, 1.98, 1.66, 7.62, repro,
2006-10-11,1.55, -2.40, 13.28, 2.01, 1.74, 7.91, repro,
2006-10-12,1.18, -0.96, 18.06, 2.00, 1.68, 7.69, repro,
2006-10-13,1.62, -2.71, 23.10, 1.94, 1.68, 7.65, repro,
2006-10-14,2.84, -1.81, 12.85, 1.99, 1.78, 7.99, repro,
2006-10-15,2.09, -1.99, 20.45, 1.97, 1.68, 7.68, repro,
2006-10-16,4.12, -2.05, 23.85, 1.98, 1.68, 7.66, repro,
2006-10-17,2.14, -1.47, 22.85, 2.03, 1.75, 7.97, repro,
2006-10-18,2.39, -1.30, 16.24, 2.05, 1.82, 8.24, repro,
2006-10-19,2.22, -1.09, 17.80, 2.19, 1.84, 8.67, repro,
2006-10-20,2.08, -2.64, 17.44, 2.25, 1.94, 9.44, repro,
2006-10-21,1.46, -1.58, 22.04, 2.17, 1.82, 8.58, repro,
2006-10-22,1.49, -1.58, 11.66, 1.98, 1.74, 7.77, repro,
2006-10-23,1.67, -3.30, 7.31, 2.11, 1.81, 8.29, repro,
2006-10-24,2.11, -0.95, 12.90, 2.01, 1.75, 7.89, repro,
2006-10-25,0.83, -2.35, 21.01, 2.03, 1.76, 7.87, repro,
2006-10-26,2.06, -1.93, 16.26, 2.02, 1.78, 7.91, repro,
2006-10-27,2.11, -0.77, 8.77, 1.98, 1.76, 7.87, repro,
2006-10-28,0.28, -1.80, 9.76, 2.13, 1.81, 8.46, repro,
2006-10-29,0.71, -1.97, 16.63, 1.96, 1.73, 7.73, repro,
2006-10-30,0.66, -1.66, 17.75, 1.90, 1.65, 7.45, repro,
2006-10-31,1.14, -2.65, 23.17, 1.95, 1.68, 7.60, repro,
2006-11-01,1.39, -1.73, 16.85, 1.98, 1.74, 7.79, repro,
2006-11-02,2.29, -1.22, 11.84, 1.97, 1.74, 7.76, repro,
2006-11-03,2.07, -0.50, 17.97, 1.97, 1.73, 7.76, repro,
2006-11-04,1.63, -0.92, 13.83, 2.00, 1.74, 7.81, repro,
2006-11-05,1.71, -2.58, 10.83, 2.01, 1.76, 7.92, repro,
2006-11-06,0.54, -1.95, 12.94, 1.94, 1.69, 7.62, repro,
2006-11-07,1.41, -0.56, 12.81, 2.05, 1.80, 8.15, repro,
2006-11-08,0.86, -1.72, 20.13, 2.04, 1.77, 8.04, repro,
2006-11-09,2.78, -1.28, 18.34, 2.06, 1.80, 8.20, repro,
2006-11-10,1.14, -1.20, 16.60, 1.99, 1.68, 7.74, repro,
2006-11-11,2.42, -0.40, 7.29, 2.02, 1.74, 8.00, repro,
2006-11-12,0.61, -2.19, 16.98, 2.05, 1.78, 8.03, repro,
2006-11-13,2.11, -0.92, 9.02, 2.03, 1.74, 7.91, repro,
2006-11-14,1.87, -1.61, 19.69, 1.92, 1.65, 7.48, repro,
2006-11-15,1.11, -1.46, 13.08, 1.90, 1.63, 7.34, repro,
2006-11-16,1.70, -2.10, 15.86, 1.90, 1.64, 7.37, repro,
2006-11-17,1.45, -2.26, 11.36, 1.89, 1.64, 7.33, repro,
2006-11-18,1.40, -1.22, 8.85, 1.91, 1.64, 7.38, repro,
2006-11-19,1.51, -2.09, 9.77, 1.91, 1.64, 7.38, repro,
2006-11-20,-0.23, -1.60, 12.17, 1.91, 1.64, 7.36, repro,
2006-11-21,2.17, -1.51, 16.57, 1.90, 1.64, 7.38, repro,
2006-11-22,0.99, -0.90, 11.66, 1.92, 1.66, 7.47, repro,
2006-11-23,1.56, -2.92, 8.11, 1.93, 1.68, 7.52, repro,
2006-11-24,1.68, -2.88, 11.32, 2.00, 1.72, 7.75, repro,
2006-11-25,1.22, -2.76, 12.94, 1.95, 1.66, 7.49, repro,
2006-11-26,0.89, -3.33, 12.65, 1.94, 1.66, 7.49, repro,
2006-11-27,0.36, -2.30, 17.36, 1.95, 1.68, 7.59, repro,
2006-11-28,0.59, -3.12, 15.51, 1.91, 1.64, 7.35, repro,
2006-11-29,1.68, -1.64, 11.24, 1.91, 1.65, 7.42, repro,
2006-11-30,1.23, -1.75, 8.16, 1.90, 1.65, 7.39, repro,
2006-12-01,0.85, -2.28, 7.22, 1.93, 1.65, 7.41, repro,
2006-12-02,0.44, -2.41, 6.72, 1.92, 1.66, 7.42, repro,
2006-12-03,1.25, -1.40, 8.94, 1.91, 1.65, 7.36, repro,
2006-12-04,0.86, -1.46, 1.85, 1.95, 1.66, 7.52, repro,
2006-12-05,0.77, -1.59, 12.87, 2.00, 1.78, 7.71, repro,
2006-12-06,1.81, -2.99, 9.56, 2.00, 1.81, 7.79, repro,
2006-12-07,1.36, -2.81, 10.98, 1.94, 1.73, 7.57, repro,
2006-12-08,2.16, -1.43, 14.92, 1.94, 1.73, 7.59, repro,
2006-12-09,1.70, -3.75, 8.40, 1.98, 1.80, 7.75, repro,
2006-12-10,0.96, -2.26, 14.73, 1.99, 1.72, 7.73, repro,
2006-12-11,2.65, -3.76, 11.25, 1.92, 1.68, 7.46, repro,
2006-12-12,0.99, -2.96, 5.44, 1.98, 1.75, 7.65, repro,
2006-12-13,3.00, -2.38, 7.27, 1.93, 1.74, 7.57, repro,
2006-12-14,2.99, -1.90, 12.83, 1.95, 1.74, 7.59, repro,
2006-12-15,1.34, -2.79, 13.48, 2.00, 1.77, 7.87, repro,
2006-12-16,0.64, -3.40, 19.00, 1.99, 1.75, 7.71, repro,
2006-12-17,1.23, -2.98, 13.96, 2.02, 1.83, 8.07, repro,
2006-12-18,1.61, -3.79, 13.19, 2.06, 1.89, 8.28, repro,
2006-12-19,2.63, -2.51, 12.46, 2.00, 1.85, 7.95, repro,
2006-12-20,1.46, -3.03, 10.47, 2.02, 1.85, 7.82, repro,
2006-12-21,0.86, -3.67, 7.28, 1.94, 1.80, 7.64, repro,
2006-12-22,2.75, -3.49, 15.23, 2.11, 1.99, 8.43, repro,
2006-12-23,2.50, -2.92, 9.98, 2.01, 1.86, 8.01, repro,
2006-12-24,2.70, -2.21, 7.52, 1.90, 1.68, 7.44, repro,
2006-12-25,2.19, -3.39, 3.81, 1.98, 1.81, 7.71, repro,
2006-12-26,2.76, -4.23, 9.57, 1.99, 1.77, 7.90, repro,
2006-12-27,2.46, -4.56, 23.64, 2.17, 1.96, 8.57, repro,
2006-12-28,1.49, -3.74, 18.95, 2.27, 2.22, 9.40, repro,
2006-12-29,3.05, -4.32, 3.09, 1.96, 1.78, 7.78, repro,
2006-12-30,2.47, -3.98, 6.12, 1.98, 1.77, 7.76, repro,
2006-12-31,2.66, -2.44, 12.00, 2.19, 2.00, 8.82, repro,
2007-01-01,1.61, -3.19, 15.18, 2.18, 2.00, 8.54, repro,
2007-01-02,2.19, -3.01, 14.12, 2.09, 1.97, 8.37, repro,
2007-01-03,2.51, -3.53, 16.33, 1.96, 1.84, 7.83, repro,
2007-01-04,2.28, -3.34, 12.43, 1.91, 1.70, 7.54, repro,
2007-01-05,2.81, -3.90, 15.68, 1.96, 1.82, 7.72, repro,
2007-01-06,2.64, -2.32, 9.01, 1.93, 1.74, 7.55, repro,
2007-01-07,3.37, -2.87, 6.34, 1.94, 1.70, 7.50, repro,
2007-01-08,2.30, -3.40, 5.83, 1.96, 1.74, 7.65, repro,
2007-01-09,1.62, -2.71, 4.89, 1.93, 1.69, 7.41, repro,
2007-01-10,1.54, -3.63, 8.03, 1.97, 1.73, 7.55, repro,
2007-01-11,1.37, -3.61, 12.00, 2.00, 1.70, 7.66, repro,
2007-01-12,1.58, -3.33, 9.77, 1.91, 1.64, 7.34, repro,
2007-01-13,1.93, -3.09, 6.79, 1.86, 1.63, 7.17, repro,
2007-01-14,2.13, -3.07, 2.04, 1.85, 1.61, 7.11, repro,
2007-01-15,2.18, -2.51, 0.94, 1.87, 1.62, 7.19, repro,
2007-01-16,1.83, -2.40, 4.87, 1.90, 1.62, 7.24, repro,
2007-01-17,1.66, -3.84, 6.42, 1.94, 1.70, 7.51, repro,
2007-01-18,1.95, -2.02, 3.23, 1.94, 1.74, 7.54, repro,
2007-01-19,2.22, -1.61, 5.78, 1.93, 1.64, 7.48, repro,
2007-01-20,2.59, -1.96, 8.55, 1.93, 1.63, 7.45, repro,
2007-01-21,1.50, -2.89, 6.90, 1.88, 1.63, 7.24, repro,
2007-01-22,1.23, -1.94, 4.54, 1.90, 1.68, 7.39, repro,
2007-01-23,2.04, -2.72, 4.01, 1.88, 1.63, 7.19, repro,
2007-01-24,0.93, -2.32, 5.70, 1.87, 1.63, 7.13, repro,
2007-01-25,1.37, -1.91, 0.53, 1.91, 1.66, 7.19, repro,
2007-01-26,1.30, -2.84, 7.78, 1.87, 1.61, 7.08, repro,
2007-01-27,-0.94, -1.75, 8.38, 1.86, 1.61, 7.07, repro,
2007-01-28,1.11, -2.88, 4.16, 1.88, 1.63, 7.20, repro,
2007-01-29,1.44, -2.12, 7.52, 1.87, 1.62, 7.11, repro,
2007-01-30,0.15, -1.83, 7.90, 1.87, 1.61, 7.06, repro,
2007-01-31,-0.30, -2.78, 13.38, 1.87, 1.61, 7.07, repro,
2007-02-01,0.23, -0.91, 11.47, 1.89, 1.66, 7.25, repro,
2007-02-02,0.65, -1.68, 6.91, 1.89, 1.63, 7.24, repro,
2007-02-03,1.54, -2.51, 6.89, 1.92, 1.64, 7.37, repro,
2007-02-04,1.24, -2.18, 9.87, 1.87, 1.61, 7.10, repro,
2007-02-05,0.77, -2.07, 4.54, 1.86, 1.61, 7.09, repro,
2007-02-06,-0.22, -2.50, 5.00, 1.90, 1.62, 7.18, repro,
2007-02-07,1.26, -3.08, 12.47, 1.87, 1.62, 7.13, repro,
2007-02-08,1.47, -1.93, 4.77, 1.95, 1.70, 7.46, repro,
2007-02-09,1.30, -2.22, 13.78, 1.89, 1.67, 7.27, repro,
2007-02-10,-0.17, -2.14, 8.44, 1.86, 1.62, 7.12, repro,
2007-02-11,1.87, -2.96, 16.33, 1.86, 1.63, 7.12, repro,
2007-02-12,0.83, -2.67, 8.65, 1.87, 1.62, 7.13, repro,
2007-02-13,-0.14, -3.77, 9.64, 1.88, 1.62, 7.17, repro,